ASA1923 KDEN-KLAX

Flight info

Callsign ASA1923
Flight time N/A
Altitude 30000
Route BAYLR6 TEHRU JASSE Q90 DNERO ANJLL4
Aircraft B739/M-SDE2E3FGHIRWXY/LB1

Departure

Time 2026-05-06 00:55
Airport Denver International Airport (KDEN)

Arrival

Time N/A
Airport Los Angeles International Airport (KLAX)
Time Latitude Longitude Altitude Speed Heading
2026-05-06 00:37 39.85333 -104.67711 5385 ft 0 kts 13°
2026-05-06 00:46 39.85317 -104.67715 5382 ft 2 kts 10°
2026-05-06 00:46 39.85301 -104.67718 5385 ft 2 kts
2026-05-06 00:46 39.85284 -104.67720 5385 ft 2 kts
2026-05-06 00:47 39.85268 -104.67719 5383 ft 2 kts 351°
2026-05-06 00:47 39.85252 -104.67714 5382 ft 2 kts 329°
2026-05-06 00:47 39.85241 -104.67699 5383 ft 2 kts 290°
2026-05-06 00:47 39.85238 -104.67687 5380 ft 0 kts 273°
2026-05-06 00:48 39.85238 -104.67686 5380 ft 0 kts 272°
2026-05-06 00:50 39.85239 -104.67717 5385 ft 11 kts 272°
2026-05-06 00:50 39.85240 -104.67870 5384 ft 19 kts 269°
2026-05-06 00:50 39.85241 -104.68040 5384 ft 18 kts 271°
2026-05-06 00:50 39.85239 -104.68185 5385 ft 15 kts 258°
2026-05-06 00:51 39.85211 -104.68323 5382 ft 17 kts 259°
2026-05-06 00:51 39.85207 -104.68492 5376 ft 21 kts 270°
2026-05-06 00:51 39.85204 -104.68672 5368 ft 18 kts 268°
2026-05-06 00:51 39.85201 -104.68844 5361 ft 20 kts 269°
2026-05-06 00:52 39.85197 -104.69030 5353 ft 21 kts 268°
2026-05-06 00:52 39.85198 -104.69215 5348 ft 21 kts 272°
2026-05-06 00:52 39.85202 -104.69412 5337 ft 23 kts 271°
2026-05-06 00:52 39.85203 -104.69498 5337 ft 0 kts 270°
2026-05-06 00:53 39.85203 -104.69501 5337 ft 1 kts 271°
2026-05-06 00:53 39.85203 -104.69575 5332 ft 13 kts 270°
2026-05-06 00:53 39.85232 -104.69646 5333 ft 14 kts 331°
2026-05-06 00:53 39.85382 -104.69657 5336 ft 35 kts
2026-05-06 00:54 39.85852 -104.69651 5332 ft 98 kts
2026-05-06 00:54 39.86384 -104.69645 5327 ft 132 kts
2026-05-06 00:54 39.87437 -104.69632 5405 ft 165 kts
2026-05-06 00:54 39.88614 -104.69635 5838 ft 176 kts
2026-05-06 00:55 39.89886 -104.69649 6433 ft 182 kts 356°
2026-05-06 00:55 39.91092 -104.70284 6805 ft 207 kts 321°
2026-05-06 00:55 39.91919 -104.71921 6976 ft 232 kts 287°
2026-05-06 00:55 39.91947 -104.74063 7337 ft 243 kts 251°
2026-05-06 00:56 39.91047 -104.75945 7726 ft 253 kts 219°
2026-05-06 00:56 39.89670 -104.77402 8277 ft 263 kts 217°
2026-05-06 00:56 39.88182 -104.78949 8585 ft 283 kts 216°
2026-05-06 00:56 39.86650 -104.80562 9449 ft 281 kts 216°
2026-05-06 00:57 39.85139 -104.82170 10278 ft 282 kts 217°
2026-05-06 00:57 39.83637 -104.83783 11089 ft 281 kts 219°
2026-05-06 00:57 39.82083 -104.85464 11331 ft 301 kts 220°
2026-05-06 00:57 39.80413 -104.87275 11508 ft 323 kts 220°
2026-05-06 00:58 39.78678 -104.89190 11839 ft 337 kts 225°
2026-05-06 00:58 39.77312 -104.91651 12506 ft 338 kts 245°
2026-05-06 00:58 39.76561 -104.94528 13323 ft 336 kts 255°
2026-05-06 00:58 39.75947 -104.97471 14054 ft 337 kts 255°
2026-05-06 00:59 39.75323 -105.00427 14730 ft 339 kts 255°
2026-05-06 00:59 39.74659 -105.03380 15338 ft 341 kts 252°
2026-05-06 00:59 39.73788 -105.06265 15966 ft 344 kts 248°
2026-05-06 00:59 39.72825 -105.09119 16603 ft 345 kts 248°
2026-05-06 01:00 39.71845 -105.11980 17206 ft 347 kts 248°
2026-05-06 01:00 39.70877 -105.14846 17809 ft 349 kts 249°
2026-05-06 01:00 39.69904 -105.17767 18372 ft 351 kts 249°
2026-05-06 01:00 39.68938 -105.20696 18868 ft 354 kts 249°
2026-05-06 01:01 39.67969 -105.23646 19335 ft 357 kts 249°
2026-05-06 01:01 39.66990 -105.26625 19811 ft 360 kts 249°
2026-05-06 01:01 39.66017 -105.29583 20269 ft 362 kts 249°
2026-05-06 01:01 39.65019 -105.32613 20664 ft 367 kts 249°
2026-05-06 01:02 39.64008 -105.35676 21129 ft 370 kts 248°
2026-05-06 01:02 39.62989 -105.38758 21562 ft 373 kts 248°
2026-05-06 01:02 39.61966 -105.41863 22048 ft 375 kts 248°
2026-05-06 01:02 39.60937 -105.44982 22475 ft 378 kts 248°
2026-05-06 01:03 39.59895 -105.48136 22914 ft 381 kts 248°
2026-05-06 01:03 39.58844 -105.51305 23295 ft 385 kts 248°
2026-05-06 01:03 39.57790 -105.54470 23711 ft 388 kts 248°
2026-05-06 01:03 39.56718 -105.57684 24139 ft 389 kts 248°
2026-05-06 01:04 39.55639 -105.60914 24518 ft 392 kts 248°
2026-05-06 01:04 39.54607 -105.64195 24945 ft 394 kts 251°
2026-05-06 01:04 39.53661 -105.67551 25254 ft 397 kts 251°
2026-05-06 01:04 39.52744 -105.70941 25615 ft 401 kts 252°
2026-05-06 01:05 39.51827 -105.74352 26025 ft 403 kts 252°
2026-05-06 01:05 39.50895 -105.77787 26439 ft 403 kts 252°
2026-05-06 01:05 39.49956 -105.81214 26951 ft 401 kts 251°
2026-05-06 01:05 39.49018 -105.84604 27545 ft 399 kts 251°
2026-05-06 01:06 39.48080 -105.87981 28085 ft 398 kts 251°
2026-05-06 01:06 39.47144 -105.91344 28555 ft 398 kts 251°
2026-05-06 01:06 39.46204 -105.94711 29049 ft 397 kts 251°
2026-05-06 01:06 39.45278 -105.98022 29599 ft 395 kts 251°
2026-05-06 01:07 39.44326 -106.01423 29680 ft 402 kts 251°
2026-05-06 01:07 39.42417 -106.08232 29703 ft 405 kts 251°
2026-05-06 01:08 39.40509 -106.15018 29710 ft 397 kts 251°
2026-05-06 01:08 39.38604 -106.21780 29720 ft 407 kts 251°
2026-05-06 01:09 39.36626 -106.28768 29934 ft 419 kts 250°
2026-05-06 01:09 39.34610 -106.35878 29906 ft 423 kts 251°
2026-05-06 01:10 39.32565 -106.43068 29915 ft 427 kts 251°
2026-05-06 01:10 39.30506 -106.50291 29895 ft 429 kts 251°
2026-05-06 01:11 39.28439 -106.57523 29854 ft 429 kts 250°